Yankton, SD

6:18 PM CST on November 16, 2019 (GMT -0600)
Gurney Municipal

Weather History for KYKN - October, 2019

Change the Weather History Date:

Tuesday, October 22, 2019

  Actual Average Record
Temperature  
Mean Temperature - -  
Max Temperature - 62 °F 84 °F (2003)
Min Temperature - 36 °F 20 °F (1976)
Moisture  
Dew Point -    
Average Humidity    
Maximum Humidity    
Minimum Humidity    
Precipitation  
Precipitation 0.00 in - - ()
Sea Level Pressure  
Sea Level Pressure 29.83 in    
Wind  
Wind Speed 22 mph (West)    
Max Wind Speed 30 mph    
Max Gust Speed 34 mph    
Visibility 10 miles    
Events      
Averages and records for this station are not official NWS values.
T = Trace of Precipitation, MM = Missing Value Source: NWS Daily Summary

Daily Weather History Graph

Daily Weather History Graph

Search for Another Location

Airport or City:

Astronomy

Oct. 22, 2019 Rise Set
Actual Time 7:51 AM CDT 6:36 PM CDT
Civil Twilight 7:22 AM CDT 7:05 PM CDT
Nautical Twilight 6:49 AM CDT 7:38 PM CDT
Astronomical Twilight 6:16 AM CDT 8:10 PM CDT
Moon 12:50 AM CDT (10/22) 3:57 PM CDT (10/22)
Length of Visible Light 11h 42m
Length of Day
10h 44m
Last Quarter, 37% of the Moon is Illuminated
Oct 22
Last Quarter
Oct 27
New
Nov 4
First Quarter
Nov 12
Full
Nov 19
Last Quarter

Hourly Weather History & Observations

Time (CDT) Temp. Dew Point Humidity Pressure Visibility Wind Dir Wind Speed Gust Speed Precip Events Conditions
12:17 AM - - N/A% 29.74 in 10.0 mi WNW 29.9 mph 34.5 mph N/A   Mostly Cloudy
12:56 AM - - N/A% 29.75 in 10.0 mi WNW 27.6 mph 34.5 mph N/A   Clear
1:56 AM - - N/A% 29.77 in 10.0 mi WNW 25.3 mph 32.2 mph N/A   Clear
2:56 AM - - N/A% 29.78 in 10.0 mi WNW 24.2 mph 33.4 mph N/A   Clear
3:56 AM - - N/A% 29.79 in 10.0 mi WNW 25.3 mph 32.2 mph N/A   Clear
4:56 AM - - N/A% 29.81 in 10.0 mi WNW 26.5 mph 32.2 mph N/A   Clear
5:56 AM - - N/A% 29.83 in 10.0 mi WNW 21.9 mph 27.6 mph N/A   Clear
6:56 AM - - N/A% 29.85 in 10.0 mi WNW 19.6 mph 26.5 mph N/A   Clear
7:56 AM - - N/A% 29.85 in 10.0 mi WNW 21.9 mph 27.6 mph N/A   Clear
8:56 AM - - N/A% 29.88 in 10.0 mi West 18.4 mph 26.5 mph N/A   Clear
9:56 AM - - N/A% 29.89 in 10.0 mi WNW 20.7 mph - N/A   Clear
10:56 AM - - N/A% 29.90 in 10.0 mi WNW 19.6 mph 33.4 mph N/A   Clear
11:56 AM - - N/A% 29.90 in 10.0 mi West 24.2 mph 31.1 mph N/A   Clear
12:56 PM - - N/A% 29.89 in 10.0 mi WNW 24.2 mph 29.9 mph N/A   Partly Cloudy
1:56 PM - - N/A% 29.87 in 10.0 mi West 23.0 mph 31.1 mph N/A   Partly Cloudy
2:56 PM - - N/A% 29.86 in 10.0 mi WNW 18.4 mph 29.9 mph N/A   Partly Cloudy
3:56 PM - - N/A% 29.85 in 10.0 mi West 18.4 mph - N/A   Clear
4:56 PM - - N/A% 29.84 in 10.0 mi West 17.3 mph 24.2 mph N/A   Partly Cloudy
5:56 PM - - N/A% 29.83 in 10.0 mi West 9.2 mph - N/A   Scattered Clouds
6:56 PM - - N/A% 29.83 in 10.0 mi West 8.1 mph - N/A   Clear
7:56 PM - - N/A% 29.83 in 10.0 mi West 5.8 mph - N/A   Clear
8:56 PM - - N/A% 29.83 in 10.0 mi SW 4.6 mph - N/A   Clear
9:56 PM - - N/A% 29.83 in 10.0 mi SW 5.8 mph - N/A   Clear
10:56 PM - - N/A% 29.82 in 10.0 mi SSW 3.5 mph - N/A   Clear
11:56 PM - - N/A% 29.80 in 10.0 mi Calm Calm - N/A   Scattered Clouds